Regional Weather Roundup
Issued by NWS

Home | Current Version | Previous Version | Text Only | Print | Product List | Glossary On
Versions: 1 2 3 4 5 6 7 8 9 10 11 12 13 14 15 16 17 18 19 20 21 22 23 24 25 26 27 28 29 30 31 32 33 34 35 36 37 38 39 40 41 42 43 44 45 46 47 48 49 50
000
ASUS43 KLMK 011302
RWRKY
KENTUCKY REGIONAL WEATHER ROUNDUP
NATIONAL WEATHER SERVICE LOUISVILLE KY
900 AM EDT WED OCT 01 2014

NOTE "FAIR" INDICATES FEW OR NO CLOUDS BELOW 12,000 FEET
WITH NO SIGNIFICANT WEATHER AND/OR OBSTRUCTIONS TO VISIBILITY.

KYZ001>023-026-027-061>063-070>075-011400-
WESTERN AND SOUTH CENTRAL KENTUCKY

CITY           SKY/WX    TMP DP  RH WIND       PRES   REMARKS
PADUCAH        PTSUNNY   60  58  92 CALM      29.94R FOG
HENDERSON      NOT AVBL
OWENSBORO      SUNNY     63  61  93 SE5       29.98R FOG
HOPKINSVILLE   PTSUNNY   61  55  82 E3        29.97R
BOWLING GREEN  SUNNY     59  56  89 CALM      29.99R
GLASGOW        NOT AVBL
$$

KYZ024-025-028>034-038-045-046-053-011400-
NORTH CENTRAL KENTUCKY

CITY           SKY/WX    TMP DP  RH WIND       PRES   REMARKS
LOUISVILLE/SDF MOSUNNY   60  55  83 E3        30.00R
LOUISVILLE/LOU SUNNY     59  53  80 E3        30.01R
FORT KNOX      PTSUNNY   58  56  94 E5        29.98R FOG
$$

KYZ035>037-039>044-047>052-055>060-089>105-011400-
NORTHEAST KENTUCKY

CITY           SKY/WX    TMP DP  RH WIND       PRES   REMARKS
LEXINGTON      FOG       59  57  93 E6        30.01R VSB 1/4
COVINGTON      SUNNY     54  50  86 E5        30.02R
FRANKFORT      CLOUDY    55  51  86 VRB3      30.00R
$$

KYZ054-064>069-076>088-106>120-011400-
SOUTHEAST KENTUCKY

CITY           SKY/WX    TMP DP  RH WIND       PRES   REMARKS
JACKSON        FOG       58  57  97 CALM      30.02R VSB<1/4
LONDON         MOSUNNY   57  54  89 SE3       30.02R
SOMERSET       MOSUNNY   55  55 100 CALM      30.02S
MIDDLESBORO    FOG       53  53 100 CALM      30.05S VSB 1/4
MONTICELLO     SUNNY     58  57  96 CALM      30.02S FOG
$$



USA.gov is the U.S. government's official web portal to all federal, state and local government web resources and services.